Tri-Cities, TN

4:56 PM EST on December 12, 2019 (GMT -0500)
Tri-Cities Regional Tennessee / Virginia

Weather History for KTRI - October, 2019

Change the Weather History Date:

Monday, October 14, 2019

  Actual Average Record
Temperature  
Mean Temperature 55 °F 57 °F  
Max Temperature 73 °F 70 °F 85 °F (1954)
Min Temperature 37 °F 44 °F 26 °F (1988)
Degree Days  
Heating Degree Days 10 9  
Month to date heating degree days 17 94  
Since 1 July heating degree days 17 147  
Cooling Degree Days 0 0  
Month to date cooling degree days 67 9  
Year to date cooling degree days 1452 977  
Growing Degree Days 4 (Base 50)    
Moisture  
Dew Point 39 °F    
Average Humidity 60    
Maximum Humidity 92    
Minimum Humidity 28    
Precipitation  
Precipitation 0.00 in 0.06 in 1.09 in (2014)
Month to date precipitation 0.72 0.93  
Year to date precipitation 42.33 33.37  
Snow  
Snow 0.00 in 0.00 in - ()
Month to date snowfall 0.0 0.0  
Since 1 July snowfall 0.0 0.0  
Since 1 September snowfall 0.0 0.0  
Snow Depth 0.00 in    
Sea Level Pressure  
Sea Level Pressure 30.10 in    
Wind  
Wind Speed 2 mph (WSW)    
Max Wind Speed 9 mph    
Max Gust Speed 13 mph    
Visibility 10 miles    
Events      
T = Trace of Precipitation, MM = Missing Value Source: NWS Daily Summary

Daily Weather History Graph

Daily Weather History Graph

Search for Another Location

Airport or City:

Astronomy

Oct. 14, 2019 Rise Set
Actual Time 7:35 AM EDT 6:55 PM EDT
Civil Twilight 7:09 AM EDT 7:20 PM EDT
Nautical Twilight 6:39 AM EDT 7:50 PM EDT
Astronomical Twilight 6:09 AM EDT 8:20 PM EDT
Moon 7:44 PM EDT (10/14) 8:06 AM EDT (10/14)
Length of Visible Light 12h 11m
Length of Day
11h 19m
Waxing Gibbous, 99% of the Moon is Illuminated
Oct 14
Waxing Gibbous
Oct 21
Last Quarter
Oct 27
New
Nov 4
First Quarter
Nov 12
Full

Hourly Weather History & Observations

Time (EDT) Temp. Dew Point Humidity Pressure Visibility Wind Dir Wind Speed Gust Speed Precip Events Conditions
12:53 AM 43.0 °F 37.0 °F 80% 30.03 in 10.0 mi Calm Calm - N/A   Clear
1:53 AM 41.0 °F 37.0 °F 86% 30.04 in 10.0 mi Calm Calm - N/A   Clear
2:53 AM 41.0 °F 36.0 °F 82% 30.04 in 10.0 mi Calm Calm - N/A   Clear
3:53 AM 39.9 °F 37.0 °F 89% 30.04 in 10.0 mi Calm Calm - N/A   Clear
4:53 AM 39.0 °F 36.0 °F 89% 30.05 in 10.0 mi Calm Calm - N/A   Clear
5:53 AM 39.0 °F 36.0 °F 89% 30.07 in 10.0 mi Calm Calm - N/A   Clear
6:53 AM 37.9 °F 36.0 °F 93% 30.09 in 10.0 mi Calm Calm - N/A   Clear
7:53 AM 37.0 °F 35.1 °F 93% 30.11 in 10.0 mi Calm Calm - N/A   Clear
8:53 AM 44.1 °F 39.9 °F 85% 30.14 in 10.0 mi Calm Calm - N/A   Scattered Clouds
9:40 AM 48.0 °F 43.0 °F 83% 30.18 in 10.0 mi Calm Calm - N/A   Mostly Cloudy
9:53 AM 48.9 °F 44.1 °F 83% 30.15 in 10.0 mi Calm Calm - N/A   Mostly Cloudy
10:20 AM 53.1 °F 46.9 °F 80% 30.18 in 10.0 mi Calm Calm - N/A   Partly Cloudy
10:53 AM 57.0 °F 48.0 °F 72% 30.15 in 10.0 mi Variable 3.5 mph - N/A   Clear
11:53 AM 62.1 °F 41.0 °F 46% 30.14 in 10.0 mi Calm Calm - N/A   Partly Cloudy
12:53 PM 66.0 °F 43.0 °F 43% 30.11 in 10.0 mi Variable 3.5 mph - N/A   Clear
1:53 PM 69.1 °F 36.0 °F 30% 30.09 in 10.0 mi Variable 5.8 mph - N/A   Clear
2:53 PM 70.0 °F 37.9 °F 31% 30.07 in 10.0 mi WNW 3.5 mph - N/A   Clear
3:53 PM 72.0 °F 37.0 °F 28% 30.06 in 10.0 mi West 6.9 mph - N/A   Clear
4:53 PM 72.0 °F 37.0 °F 28% 30.06 in 10.0 mi SW 5.8 mph - N/A   Clear
5:53 PM 70.0 °F 37.0 °F 30% 30.06 in 10.0 mi SW 6.9 mph - N/A   Partly Cloudy
6:53 PM 63.0 °F 39.9 °F 43% 30.08 in 10.0 mi WSW 4.6 mph - N/A   Partly Cloudy
7:53 PM 57.0 °F 39.9 °F 53% 30.10 in 10.0 mi Calm Calm - N/A   Clear
8:53 PM 51.1 °F 41.0 °F 68% 30.11 in 10.0 mi Calm Calm - N/A   Clear
9:53 PM 50.0 °F 41.0 °F 71% 30.13 in 10.0 mi Calm Calm - N/A   Clear
10:53 PM 46.0 °F 39.9 °F 79% 30.12 in 10.0 mi Calm Calm - N/A   Partly Cloudy
11:53 PM 46.0 °F 39.9 °F 79% 30.12 in 10.0 mi Calm Calm - N/A   Partly Cloudy